Time,TemperatureF,DewpointF,PressureIn,WindDirection,WindDirectionDegrees,WindSpeedMPH,WindSpeedGustMPH,Humidity,HourlyPrecipIn,Conditions,Clouds,dailyrainin,SolarRadiationWatts/m^2,SoftwareType,DateUTC
2013-02-14 00:00:00,48.3,43.1,29.91,West,272,2.0,4.0,82,0.00,,---,0.17,0.00,VWS V14.01,2013-02-14 05:00:00,
2013-02-14 00:03:00,48.3,43.1,29.91,West,275,1.0,3.0,82,0.00,,---,0.00,0.00,VWS V14.01,2013-02-14 05:03:00,
2013-02-14 00:08:00,48.2,43.0,29.90,West,269,0.0,2.0,82,0.00,,---,0.00,0.00,VWS V14.01,2013-02-14 05:08:00,
2013-02-14 00:13:00,48.1,43.2,29.90,West,269,2.0,4.0,83,0.00,,---,0.00,0.00,VWS V14.01,2013-02-14 05:13:00,
2013-02-14 00:19:00,48.0,43.1,29.90,West,269,2.0,2.0,83,0.00,,---,0.00,0.00,VWS V14.01,2013-02-14 05:19:00,
2013-02-14 00:24:00,47.9,43.0,29.90,West,269,0.0,0.0,83,0.00,,---,0.00,0.00,VWS V14.01,2013-02-14 05:24:00,
2013-02-14 00:29:00,47.8,42.9,29.90,West,269,0.0,2.0,83,0.00,,---,0.00,0.00,VWS V14.01,2013-02-14 05:29:00,
2013-02-14 00:34:00,47.7,42.8,29.90,West,269,0.0,2.0,83,0.00,,---,0.00,0.00,VWS V14.01,2013-02-14 05:34:00,
2013-02-14 00:39:00,47.6,43.0,29.90,West,269,0.0,4.0,84,0.00,,---,0.00,0.00,VWS V14.01,2013-02-14 05:39:00,
2013-02-14 00:44:00,47.5,42.9,29.90,West,269,3.0,4.0,84,0.00,,---,0.00,0.00,VWS V14.01,2013-02-14 05:44:00,
2013-02-14 00:49:00,47.4,42.8,29.90,West,268,0.0,0.0,84,0.00,,---,0.00,0.00,VWS V14.01,2013-02-14 05:49:00,
2013-02-14 00:54:00,47.2,42.6,29.90,West,268,0.0,0.0,84,0.00,,---,0.00,0.00,VWS V14.01,2013-02-14 05:54:00,
2013-02-14 00:59:00,47.2,42.9,29.89,West,269,0.0,0.0,85,0.00,,---,0.00,0.00,VWS V14.01,2013-02-14 05:59:00,
2013-02-14 01:04:00,47.0,42.7,29.89,West,269,0.0,2.0,85,0.00,,---,0.00,0.00,VWS V14.01,2013-02-14 06:04:00,
2013-02-14 01:09:00,46.9,42.6,29.90,West,269,0.0,0.0,85,0.00,,---,0.00,0.00,VWS V14.01,2013-02-14 06:09:00,
2013-02-14 01:14:00,46.8,42.5,29.89,West,269,0.0,3.0,85,0.00,,---,0.00,0.00,VWS V14.01,2013-02-14 06:14:00,
2013-02-14 01:20:00,46.6,42.3,29.90,West,269,0.0,2.0,85,0.00,,---,0.00,0.00,VWS V14.01,2013-02-14 06:20:00,
2013-02-14 01:25:00,46.5,42.5,29.90,West,269,2.0,3.0,86,0.00,,---,0.00,0.00,VWS V14.01,2013-02-14 06:25:00,
2013-02-14 01:30:00,46.4,42.5,29.90,West,269,0.0,2.0,86,0.00,,---,0.00,0.00,VWS V14.01,2013-02-14 06:30:00,
2013-02-14 01:35:00,46.3,42.3,29.91,West,269,0.0,2.0,86,0.00,,---,0.00,0.00,VWS V14.01,2013-02-14 06:35:00,
2013-02-14 01:40:00,46.1,42.2,29.91,West,269,0.0,0.0,86,0.00,,---,0.00,0.00,VWS V14.01,2013-02-14 06:40:00,
2013-02-14 01:45:00,46.0,42.0,29.92,West,265,0.0,3.0,86,0.00,,---,0.00,0.00,VWS V14.01,2013-02-14 06:45:00,
2013-02-14 01:50:00,45.8,42.2,29.92,West,265,0.0,2.0,87,0.00,,---,0.00,0.00,VWS V14.01,2013-02-14 06:50:00,
2013-02-14 01:55:00,45.6,42.0,29.93,West,263,0.0,4.0,87,0.00,,---,0.00,0.00,VWS V14.01,2013-02-14 06:55:00,
2013-02-14 02:00:00,45.6,42.0,29.93,West,263,0.0,0.0,87,0.00,,---,0.00,0.00,VWS V14.01,2013-02-14 07:00:00,
2013-02-14 02:05:00,45.4,41.8,29.92,West,263,0.0,0.0,87,0.00,,---,0.00,0.00,VWS V14.01,2013-02-14 07:05:00,
2013-02-14 02:10:00,45.4,42.1,29.93,West,263,0.0,0.0,88,0.00,,---,0.00,0.00,VWS V14.01,2013-02-14 07:10:00,
2013-02-14 02:15:00,45.3,42.0,29.93,West,263,0.0,0.0,88,0.00,,---,0.00,0.00,VWS V14.01,2013-02-14 07:15:00,
2013-02-14 02:20:00,45.2,41.9,29.93,West,263,0.0,0.0,88,0.00,,---,0.00,0.00,VWS V14.01,2013-02-14 07:20:00,
2013-02-14 02:25:00,45.1,41.5,29.94,West,263,0.0,0.0,87,0.00,,---,0.00,0.00,VWS V14.01,2013-02-14 07:25:00,
2013-02-14 02:30:00,45.0,41.7,29.94,West,263,0.0,0.0,88,0.00,,---,0.00,0.00,VWS V14.01,2013-02-14 07:30:00,
2013-02-14 02:35:00,44.8,41.5,29.94,West,263,0.0,0.0,88,0.00,,---,0.00,0.00,VWS V14.01,2013-02-14 07:35:00,
2013-02-14 02:40:00,44.7,41.4,29.94,West,263,0.0,1.0,88,0.00,,---,0.00,0.00,VWS V14.01,2013-02-14 07:40:00,
2013-02-14 02:45:00,44.6,41.6,29.94,West,263,0.0,0.0,89,0.00,,---,0.00,0.00,VWS V14.01,2013-02-14 07:45:00,
2013-02-14 02:50:00,44.5,41.5,29.94,West,263,0.0,0.0,89,0.00,,---,0.00,0.00,VWS V14.01,2013-02-14 07:50:00,
2013-02-14 02:55:00,44.4,41.4,29.93,West,263,0.0,2.0,89,0.00,,---,0.00,0.00,VWS V14.01,2013-02-14 07:55:00,
2013-02-14 03:01:00,44.3,41.3,29.94,West,263,0.0,1.0,89,0.00,,---,0.00,0.00,VWS V14.01,2013-02-14 08:01:00,
2013-02-14 03:06:00,44.3,41.6,29.94,West,263,1.0,2.0,90,0.00,,---,0.00,0.00,VWS V14.01,2013-02-14 08:06:00,
2013-02-14 03:11:00,44.2,41.5,29.94,West,263,0.0,2.0,90,0.00,,---,0.00,0.00,VWS V14.01,2013-02-14 08:11:00,
2013-02-14 03:16:00,44.2,41.5,29.94,West,263,0.0,0.0,90,0.00,,---,0.00,0.00,VWS V14.01,2013-02-14 08:16:00,
2013-02-14 03:21:00,44.1,41.4,29.95,West,263,0.0,0.0,90,0.00,,---,0.00,0.00,VWS V14.01,2013-02-14 08:21:00,
2013-02-14 03:26:00,44.1,41.4,29.95,West,263,0.0,2.0,90,0.00,,---,0.00,0.00,VWS V14.01,2013-02-14 08:26:00,
2013-02-14 03:31:00,44.0,41.3,29.95,West,263,0.0,0.0,90,0.00,,---,0.00,0.00,VWS V14.01,2013-02-14 08:31:00,
2013-02-14 03:36:00,44.0,41.3,29.95,West,263,0.0,0.0,90,0.00,,---,0.00,0.00,VWS V14.01,2013-02-14 08:36:00,
2013-02-14 03:41:00,43.9,41.2,29.96,West,263,0.0,0.0,90,0.00,,---,0.00,0.00,VWS V14.01,2013-02-14 08:41:00,
2013-02-14 03:46:00,43.8,41.1,29.96,West,263,0.0,1.0,90,0.00,,---,0.00,0.00,VWS V14.01,2013-02-14 08:46:00,
2013-02-14 03:51:00,43.7,41.0,29.96,West,263,0.0,0.0,90,0.00,,---,0.00,0.00,VWS V14.01,2013-02-14 08:51:00,
2013-02-14 03:56:00,43.7,41.0,29.96,West,263,0.0,0.0,90,0.00,,---,0.00,0.00,VWS V14.01,2013-02-14 08:56:00,
2013-02-14 04:01:00,43.6,40.9,29.96,West,263,0.0,1.0,90,0.00,,---,0.00,0.00,VWS V14.01,2013-02-14 09:01:00,
2013-02-14 04:06:00,43.5,40.8,29.96,West,263,0.0,0.0,90,0.00,,---,0.00,0.00,VWS V14.01,2013-02-14 09:06:00,
2013-02-14 04:11:00,43.4,40.7,29.96,West,263,0.0,0.0,90,0.00,,---,0.00,0.00,VWS V14.01,2013-02-14 09:11:00,
2013-02-14 04:16:00,43.3,40.6,29.97,West,263,0.0,0.0,90,0.00,,---,0.00,0.00,VWS V14.01,2013-02-14 09:16:00,
2013-02-14 04:22:00,43.3,40.6,29.96,West,263,0.0,0.0,90,0.00,,---,0.00,0.00,VWS V14.01,2013-02-14 09:22:00,
2013-02-14 04:27:00,43.2,40.5,29.97,West,263,0.0,0.0,90,0.00,,---,0.00,0.00,VWS V14.01,2013-02-14 09:27:00,
2013-02-14 04:32:00,43.0,40.3,29.97,West,263,0.0,0.0,90,0.00,,---,0.00,0.00,VWS V14.01,2013-02-14 09:32:00,
2013-02-14 04:37:00,42.9,40.2,29.96,West,263,0.0,0.0,90,0.00,,---,0.00,0.00,VWS V14.01,2013-02-14 09:37:00,
2013-02-14 04:42:00,42.8,40.1,29.97,West,263,0.0,0.0,90,0.00,,---,0.00,0.00,VWS V14.01,2013-02-14 09:42:00,
2013-02-14 04:47:00,42.8,40.1,29.97,West,263,0.0,0.0,90,0.00,,---,0.00,0.00,VWS V14.01,2013-02-14 09:47:00,
2013-02-14 04:52:00,42.7,40.3,29.96,West,263,0.0,0.0,91,0.00,,---,0.00,0.00,VWS V14.01,2013-02-14 09:52:00,
2013-02-14 04:57:00,42.6,40.2,29.96,West,263,0.0,0.0,91,0.00,,---,0.00,0.00,VWS V14.01,2013-02-14 09:57:00,
2013-02-14 05:02:00,42.4,40.0,29.97,West,263,0.0,0.0,91,0.00,,---,0.00,0.00,VWS V14.01,2013-02-14 10:02:00,
2013-02-14 05:07:00,42.3,39.9,29.96,West,263,0.0,0.0,91,0.00,,---,0.00,0.00,VWS V14.01,2013-02-14 10:07:00,
2013-02-14 05:12:00,42.2,39.8,29.96,West,263,0.0,0.0,91,0.00,,---,0.00,0.00,VWS V14.01,2013-02-14 10:12:00,
2013-02-14 05:17:00,42.2,39.8,29.96,West,263,0.0,0.0,91,0.00,,---,0.00,0.00,VWS V14.01,2013-02-14 10:17:00,
2013-02-14 05:22:00,42.1,39.7,29.97,West,263,0.0,0.0,91,0.00,,---,0.00,0.00,VWS V14.01,2013-02-14 10:22:00,
2013-02-14 05:27:00,42.0,39.6,29.96,West,263,0.0,0.0,91,0.00,,---,0.00,0.00,VWS V14.01,2013-02-14 10:27:00,
2013-02-14 05:34:00,41.9,39.5,29.97,West,263,0.0,1.0,91,0.00,,---,0.00,0.00,VWS V14.01,2013-02-14 10:34:00,
2013-02-14 05:39:00,41.8,39.1,29.97,West,263,0.0,0.0,90,0.00,,---,0.00,0.00,VWS V14.01,2013-02-14 10:39:00,
2013-02-14 05:44:00,41.7,39.0,29.98,West,263,0.0,0.0,90,0.00,,---,0.00,0.00,VWS V14.01,2013-02-14 10:44:00,
2013-02-14 05:49:00,41.6,38.9,29.97,West,263,0.0,0.0,90,0.00,,---,0.00,0.00,VWS V14.01,2013-02-14 10:49:00,
2013-02-14 05:54:00,41.5,38.8,29.97,West,263,0.0,0.0,90,0.00,,---,0.00,0.00,VWS V14.01,2013-02-14 10:54:00,
2013-02-14 05:59:00,41.3,38.6,29.97,West,263,0.0,1.0,90,0.00,,---,0.00,0.00,VWS V14.01,2013-02-14 10:59:00,
2013-02-14 06:04:00,41.3,38.6,29.98,West,263,0.0,0.0,90,0.00,,---,0.00,0.00,VWS V14.01,2013-02-14 11:04:00,
2013-02-14 06:10:00,41.2,38.5,29.98,West,263,0.0,0.0,90,0.00,,---,0.00,0.00,VWS V14.01,2013-02-14 11:10:00,
2013-02-14 06:15:00,41.1,38.4,29.99,West,263,0.0,0.0,90,0.00,,---,0.00,0.00,VWS V14.01,2013-02-14 11:15:00,
2013-02-14 06:20:00,41.0,38.3,29.99,West,263,0.0,0.0,90,0.00,,---,0.00,0.00,VWS V14.01,2013-02-14 11:20:00,
2013-02-14 06:25:00,40.8,38.1,29.99,West,263,0.0,0.0,90,0.00,,---,0.00,0.00,VWS V14.01,2013-02-14 11:25:00,
2013-02-14 06:30:00,40.7,38.0,29.99,West,263,0.0,0.0,90,0.00,,---,0.00,0.00,VWS V14.01,2013-02-14 11:30:00,
2013-02-14 06:35:00,40.6,37.9,30.00,West,263,0.0,0.0,90,0.00,,---,0.00,0.00,VWS V14.01,2013-02-14 11:35:00,
2013-02-14 06:40:00,40.5,37.8,30.01,West,263,0.0,0.0,90,0.00,,---,0.00,0.00,VWS V14.01,2013-02-14 11:40:00,
2013-02-14 06:45:00,40.4,37.7,30.01,West,263,0.0,0.0,90,0.00,,---,0.00,0.00,VWS V14.01,2013-02-14 11:45:00,
2013-02-14 06:50:00,40.2,37.5,30.01,West,263,0.0,0.0,90,0.00,,---,0.00,0.00,VWS V14.01,2013-02-14 11:50:00,
2013-02-14 06:55:00,40.1,37.4,30.02,West,263,0.0,0.0,90,0.00,,---,0.00,0.00,VWS V14.01,2013-02-14 11:55:00,
2013-02-14 07:00:00,39.9,37.2,30.02,West,263,0.0,0.0,90,0.00,,---,0.00,0.00,VWS V14.01,2013-02-14 12:00:00,
2013-02-14 07:05:00,39.8,37.1,30.03,West,263,0.0,0.0,90,0.00,,---,0.00,0.00,VWS V14.01,2013-02-14 12:05:00,
2013-02-14 07:10:00,39.7,37.0,30.03,West,263,0.0,0.0,90,0.00,,---,0.00,0.00,VWS V14.01,2013-02-14 12:10:00,
2013-02-14 07:15:00,39.6,37.2,30.02,West,263,0.0,0.0,91,0.00,,---,0.00,5.00,VWS V14.01,2013-02-14 12:15:00,
2013-02-14 07:21:00,39.5,37.1,30.03,West,263,0.0,0.0,91,0.00,,---,0.00,11.00,VWS V14.01,2013-02-14 12:21:00,
2013-02-14 07:26:00,39.5,37.1,30.04,West,263,0.0,1.0,91,0.00,,---,0.00,7.00,VWS V14.01,2013-02-14 12:26:00,
2013-02-14 07:31:00,39.4,37.0,30.03,West,263,0.0,0.0,91,0.00,,---,0.00,19.00,VWS V14.01,2013-02-14 12:31:00,
2013-02-14 07:36:00,39.4,37.3,30.03,West,263,0.0,1.0,92,0.00,,---,0.00,25.00,VWS V14.01,2013-02-14 12:36:00,
2013-02-14 07:41:00,39.4,37.3,30.03,West,263,0.0,0.0,92,0.00,,---,0.00,33.00,VWS V14.01,2013-02-14 12:41:00,
2013-02-14 07:46:00,39.4,37.3,30.03,West,263,0.0,1.0,92,0.00,,---,0.00,39.00,VWS V14.01,2013-02-14 12:46:00,
2013-02-14 07:51:00,39.5,37.4,30.04,West,263,0.0,0.0,92,0.00,,---,0.00,54.00,VWS V14.01,2013-02-14 12:51:00,
2013-02-14 07:56:00,39.6,37.5,30.04,West,263,0.0,2.0,92,0.00,,---,0.00,69.00,VWS V14.01,2013-02-14 12:56:00,
2013-02-14 08:01:00,39.8,38.0,30.03,West,263,0.0,0.0,93,0.00,,---,0.00,81.00,VWS V14.01,2013-02-14 13:01:00,
2013-02-14 08:06:00,40.0,38.1,30.04,West,263,0.0,0.0,93,0.00,,---,0.00,100.00,VWS V14.01,2013-02-14 13:06:00,
2013-02-14 08:11:00,40.2,38.3,30.03,West,263,0.0,0.0,93,0.00,,---,0.00,118.00,VWS V14.01,2013-02-14 13:11:00,
2013-02-14 08:16:00,40.5,38.6,30.03,WSW,257,0.0,0.0,93,0.00,,---,0.00,167.00,VWS V14.01,2013-02-14 13:16:00,
2013-02-14 08:21:00,40.9,39.0,30.03,West,269,0.0,3.0,93,0.00,,---,0.00,178.00,VWS V14.01,2013-02-14 13:21:00,
2013-02-14 08:26:00,41.3,39.2,30.04,West,279,2.0,3.0,92,0.00,,---,0.00,176.00,VWS V14.01,2013-02-14 13:26:00,
2013-02-14 08:31:00,41.7,39.5,30.05,West,280,0.0,2.0,92,0.00,,---,0.00,139.00,VWS V14.01,2013-02-14 13:31:00,
2013-02-14 08:36:00,41.9,39.5,30.05,WNW,301,1.0,5.0,91,0.00,,---,0.00,118.00,VWS V14.01,2013-02-14 13:36:00,
2013-02-14 08:41:00,42.2,39.8,30.05,NW,306,0.0,3.0,91,0.00,,---,0.00,125.00,VWS V14.01,2013-02-14 13:41:00,
2013-02-14 08:46:00,42.3,39.6,30.05,NW,306,0.0,1.0,90,0.00,,---,0.00,169.00,VWS V14.01,2013-02-14 13:46:00,
2013-02-14 08:51:00,42.6,39.9,30.06,NW,306,0.0,0.0,90,0.00,,---,0.00,229.00,VWS V14.01,2013-02-14 13:51:00,
2013-02-14 08:56:00,42.9,40.2,30.06,NW,306,0.0,2.0,90,0.00,,---,0.00,220.00,VWS V14.01,2013-02-14 13:56:00,
2013-02-14 09:01:00,43.2,40.2,30.06,NW,306,0.0,2.0,89,0.00,,---,0.00,234.00,VWS V14.01,2013-02-14 14:01:00,
2013-02-14 09:06:00,43.5,40.5,30.07,NW,306,0.0,2.0,89,0.00,,---,0.00,165.00,VWS V14.01,2013-02-14 14:06:00,
2013-02-14 09:11:00,43.8,40.5,30.07,NW,306,1.0,1.0,88,0.00,,---,0.00,160.00,VWS V14.01,2013-02-14 14:11:00,
2013-02-14 09:16:00,44.1,40.5,30.06,NW,306,0.0,2.0,87,0.00,,---,0.00,158.00,VWS V14.01,2013-02-14 14:16:00,
2013-02-14 09:21:00,44.3,40.4,30.06,NW,306,0.0,0.0,86,0.00,,---,0.00,171.00,VWS V14.01,2013-02-14 14:21:00,
2013-02-14 09:26:00,44.5,40.6,30.06,NW,306,0.0,1.0,86,0.00,,---,0.00,211.00,VWS V14.01,2013-02-14 14:26:00,
2013-02-14 09:31:00,44.7,40.8,30.06,NW,306,0.0,2.0,86,0.00,,---,0.00,204.00,VWS V14.01,2013-02-14 14:31:00,
2013-02-14 09:36:00,44.9,41.0,30.06,NW,306,0.0,3.0,86,0.00,,---,0.00,216.00,VWS V14.01,2013-02-14 14:36:00,
2013-02-14 09:41:00,45.0,41.1,30.07,NW,306,1.0,1.0,86,0.00,,---,0.00,220.00,VWS V14.01,2013-02-14 14:41:00,
2013-02-14 09:46:00,45.2,41.0,30.07,NW,306,0.0,0.0,85,0.00,,---,0.00,230.00,VWS V14.01,2013-02-14 14:46:00,
2013-02-14 09:52:00,45.3,41.1,30.08,NW,306,0.0,0.0,85,0.00,,---,0.00,230.00,VWS V14.01,2013-02-14 14:52:00,
2013-02-14 09:57:00,45.5,41.3,30.08,NW,306,1.0,2.0,85,0.00,,---,0.00,218.00,VWS V14.01,2013-02-14 14:57:00,
2013-02-14 10:02:00,45.7,41.2,30.08,NW,306,0.0,1.0,84,0.00,,---,0.00,239.00,VWS V14.01,2013-02-14 15:02:00,
2013-02-14 10:07:00,45.9,41.3,30.07,NW,306,0.0,1.0,84,0.00,,---,0.00,262.00,VWS V14.01,2013-02-14 15:07:00,
2013-02-14 10:12:00,46.2,42.0,30.07,NW,306,0.0,0.0,85,0.00,,---,0.00,285.00,VWS V14.01,2013-02-14 15:12:00,
2013-02-14 10:17:00,46.4,41.8,30.07,NW,306,0.0,1.0,84,0.00,,---,0.00,272.00,VWS V14.01,2013-02-14 15:17:00,
2013-02-14 10:22:00,46.7,41.8,30.08,NW,306,0.0,0.0,83,0.00,,---,0.00,283.00,VWS V14.01,2013-02-14 15:22:00,
2013-02-14 10:27:00,47.1,42.2,30.09,NW,306,0.0,0.0,83,0.00,,---,0.00,285.00,VWS V14.01,2013-02-14 15:27:00,
2013-02-14 10:32:00,47.3,42.1,30.09,WNW,303,0.0,0.0,82,0.00,,---,0.00,290.00,VWS V14.01,2013-02-14 15:32:00,
2013-02-14 10:37:00,47.6,42.4,30.08,WNW,303,2.0,3.0,82,0.00,,---,0.00,269.00,VWS V14.01,2013-02-14 15:37:00,
2013-02-14 10:42:00,48.0,41.8,30.08,NW,309,0.0,3.0,79,0.00,,---,0.00,278.00,VWS V14.01,2013-02-14 15:42:00,
2013-02-14 10:47:00,48.3,41.4,30.08,WSW,250,0.0,0.0,77,0.00,,---,0.00,288.00,VWS V14.01,2013-02-14 15:47:00,
2013-02-14 10:52:00,48.6,41.7,30.08,WSW,251,0.0,0.0,77,0.00,,---,0.00,313.00,VWS V14.01,2013-02-14 15:52:00,
2013-02-14 10:57:00,49.0,41.8,30.08,ESE,114,0.0,0.0,76,0.00,,---,0.00,373.00,VWS V14.01,2013-02-14 15:57:00,
2013-02-14 11:03:00,49.3,42.1,30.08,ESE,114,0.0,2.0,76,0.00,,---,0.00,304.00,VWS V14.01,2013-02-14 16:03:00,
2013-02-14 11:08:00,49.5,41.2,30.08,ESE,109,0.0,4.0,73,0.00,,---,0.00,281.00,VWS V14.01,2013-02-14 16:08:00,
2013-02-14 11:13:00,49.8,41.5,30.08,ESE,109,0.0,0.0,73,0.00,,---,0.00,290.00,VWS V14.01,2013-02-14 16:13:00,
2013-02-14 11:18:00,49.9,41.2,30.08,ESE,108,0.0,0.0,72,0.00,,---,0.00,308.00,VWS V14.01,2013-02-14 16:18:00,
2013-02-14 11:23:00,50.1,41.4,30.08,East,99,1.0,2.0,72,0.00,,---,0.00,316.00,VWS V14.01,2013-02-14 16:23:00,
2013-02-14 11:28:00,50.1,41.1,30.08,East,99,0.0,0.0,71,0.00,,---,0.00,332.00,VWS V14.01,2013-02-14 16:28:00,
2013-02-14 11:33:00,50.3,41.3,30.08,East,92,0.0,2.0,71,0.00,,---,0.00,338.00,VWS V14.01,2013-02-14 16:33:00,
2013-02-14 11:38:00,50.4,41.7,30.07,East,96,0.0,5.0,72,0.00,,---,0.00,330.00,VWS V14.01,2013-02-14 16:38:00,
2013-02-14 11:43:00,50.6,41.2,30.08,East,96,0.0,0.0,70,0.00,,---,0.00,348.00,VWS V14.01,2013-02-14 16:43:00,
2013-02-14 11:48:00,50.9,41.1,30.08,East,91,0.0,0.0,69,0.00,,---,0.00,330.00,VWS V14.01,2013-02-14 16:48:00,
2013-02-14 11:53:00,51.2,41.4,30.08,East,91,0.0,0.0,69,0.00,,---,0.00,316.00,VWS V14.01,2013-02-14 16:53:00,
2013-02-14 11:58:00,51.4,41.6,30.08,East,96,0.0,1.0,69,0.00,,---,0.00,315.00,VWS V14.01,2013-02-14 16:58:00,
2013-02-14 12:03:00,51.4,41.2,30.07,East,96,2.0,4.0,68,0.00,,---,0.00,327.00,VWS V14.01,2013-02-14 17:03:00,
2013-02-14 12:08:00,51.3,41.5,30.07,East,94,0.0,4.0,69,0.00,,---,0.00,320.00,VWS V14.01,2013-02-14 17:08:00,
2013-02-14 12:14:00,51.4,41.6,30.07,East,94,0.0,2.0,69,0.01,,---,0.01,306.00,VWS V14.01,2013-02-14 17:14:00,
2013-02-14 12:19:00,51.4,40.8,30.06,East,94,0.0,2.0,67,0.01,,---,0.01,336.00,VWS V14.01,2013-02-14 17:19:00,
2013-02-14 12:24:00,51.4,41.2,30.06,East,94,0.0,4.0,68,0.01,,---,0.01,322.00,VWS V14.01,2013-02-14 17:24:00,
2013-02-14 12:29:00,51.4,41.2,30.07,East,94,0.0,0.0,68,0.01,,---,0.01,330.00,VWS V14.01,2013-02-14 17:29:00,
2013-02-14 12:34:00,51.7,41.5,30.06,East,94,0.0,1.0,68,0.01,,---,0.01,308.00,VWS V14.01,2013-02-14 17:34:00,
2013-02-14 12:39:00,51.8,40.8,30.07,East,94,0.0,1.0,66,0.01,,---,0.01,330.00,VWS V14.01,2013-02-14 17:39:00,
2013-02-14 12:44:00,52.0,41.4,30.06,East,98,1.0,2.0,67,0.01,,---,0.01,371.00,VWS V14.01,2013-02-14 17:44:00,
2013-02-14 12:49:00,52.2,42.0,30.06,East,98,1.0,1.0,68,0.01,,---,0.01,397.00,VWS V14.01,2013-02-14 17:49:00,
2013-02-14 12:54:00,52.5,42.6,30.05,East,98,1.0,2.0,69,0.01,,---,0.01,360.00,VWS V14.01,2013-02-14 17:54:00,
2013-02-14 12:59:00,52.6,41.6,30.06,East,99,0.0,2.0,66,0.01,,---,0.01,345.00,VWS V14.01,2013-02-14 17:59:00,
2013-02-14 13:04:00,52.7,41.7,30.05,East,94,0.0,0.0,66,0.01,,---,0.01,439.00,VWS V14.01,2013-02-14 18:04:00,
2013-02-14 13:09:00,52.9,42.3,30.05,East,94,4.0,4.0,67,0.01,,---,0.01,536.00,VWS V14.01,2013-02-14 18:09:00,
2013-02-14 13:14:00,53.1,41.7,30.05,ESE,107,0.0,2.0,65,0.00,,---,0.01,364.00,VWS V14.01,2013-02-14 18:14:00,
2013-02-14 13:19:00,53.4,41.9,30.06,ESE,116,0.0,4.0,65,0.00,,---,0.01,385.00,VWS V14.01,2013-02-14 18:19:00,
2013-02-14 13:24:00,53.6,41.3,30.05,SE,130,0.0,5.0,63,0.00,,---,0.01,380.00,VWS V14.01,2013-02-14 18:24:00,
2013-02-14 13:30:00,53.6,41.3,30.05,SE,130,0.0,4.0,63,0.00,,---,0.01,464.00,VWS V14.01,2013-02-14 18:30:00,
2013-02-14 13:35:00,53.3,40.6,30.05,SE,132,2.0,4.0,62,0.00,,---,0.01,566.00,VWS V14.01,2013-02-14 18:35:00,
2013-02-14 13:40:00,53.3,40.6,30.04,SE,132,0.0,2.0,62,0.00,,---,0.01,415.00,VWS V14.01,2013-02-14 18:40:00,
2013-02-14 13:45:00,53.3,41.8,30.04,SE,132,0.0,0.0,65,0.00,,---,0.01,466.00,VWS V14.01,2013-02-14 18:45:00,
2013-02-14 13:50:00,53.5,41.2,30.04,WSW,240,0.0,6.0,63,0.00,,---,0.01,489.00,VWS V14.01,2013-02-14 18:50:00,
2013-02-14 13:55:00,53.7,41.4,30.04,WSW,247,2.0,3.0,63,0.00,,---,0.01,461.00,VWS V14.01,2013-02-14 18:55:00,
2013-02-14 14:00:00,53.8,41.5,30.03,WSW,250,0.0,3.0,63,0.00,,---,0.01,429.00,VWS V14.01,2013-02-14 19:00:00,
2013-02-14 14:05:00,54.0,41.3,30.03,WSW,250,1.0,3.0,62,0.00,,---,0.01,339.00,VWS V14.01,2013-02-14 19:05:00,
2013-02-14 14:10:00,54.2,41.1,30.02,WSW,250,2.0,5.0,61,0.00,,---,0.01,352.00,VWS V14.01,2013-02-14 19:10:00,
2013-02-14 14:16:00,54.3,41.6,30.02,WSW,244,3.0,3.0,62,0.00,,---,0.01,376.00,VWS V14.01,2013-02-14 19:16:00,
2013-02-14 14:21:00,54.2,41.5,30.02,WSW,244,2.0,3.0,62,0.00,,---,0.01,352.00,VWS V14.01,2013-02-14 19:21:00,
2013-02-14 14:26:00,54.3,41.6,30.01,WSW,246,2.0,4.0,62,0.00,,---,0.01,301.00,VWS V14.01,2013-02-14 19:26:00,
2013-02-14 14:31:00,54.3,41.2,30.02,WSW,246,0.0,3.0,61,0.00,,---,0.01,276.00,VWS V14.01,2013-02-14 19:31:00,
2013-02-14 14:36:00,54.4,41.7,30.02,WSW,244,0.0,4.0,62,0.00,,---,0.01,338.00,VWS V14.01,2013-02-14 19:36:00,
2013-02-14 14:41:00,54.6,41.9,30.03,WSW,240,3.0,4.0,62,0.00,,---,0.01,308.00,VWS V14.01,2013-02-14 19:41:00,
2013-02-14 14:46:00,54.6,41.9,30.03,SW,235,2.0,4.0,62,0.00,,---,0.01,315.00,VWS V14.01,2013-02-14 19:46:00,
2013-02-14 14:51:00,54.7,41.1,30.03,WSW,252,4.0,6.0,60,0.00,,---,0.01,313.00,VWS V14.01,2013-02-14 19:51:00,
2013-02-14 14:56:00,54.6,41.4,30.03,WSW,250,0.0,6.0,61,0.00,,---,0.01,290.00,VWS V14.01,2013-02-14 19:56:00,
2013-02-14 15:01:00,54.6,41.9,30.03,SW,234,7.0,7.0,62,0.00,,---,0.01,295.00,VWS V14.01,2013-02-14 20:01:00,
2013-02-14 15:06:00,54.5,41.3,30.03,SW,224,0.0,6.0,61,0.00,,---,0.01,251.00,VWS V14.01,2013-02-14 20:06:00,
2013-02-14 15:11:00,54.5,40.5,30.02,SW,226,2.0,5.0,59,0.00,,---,0.01,234.00,VWS V14.01,2013-02-14 20:11:00,
2013-02-14 15:16:00,54.5,40.0,30.02,WSW,240,4.0,6.0,58,0.00,,---,0.01,237.00,VWS V14.01,2013-02-14 20:16:00,
2013-02-14 15:21:00,54.3,40.7,30.02,WSW,240,2.0,4.0,60,0.00,,---,0.01,229.00,VWS V14.01,2013-02-14 20:21:00,
2013-02-14 15:26:00,54.2,40.2,30.02,WSW,242,3.0,6.0,59,0.00,,---,0.01,213.00,VWS V14.01,2013-02-14 20:26:00,
2013-02-14 15:31:00,54.1,39.7,30.02,WSW,242,0.0,4.0,58,0.00,,---,0.01,236.00,VWS V14.01,2013-02-14 20:31:00,
2013-02-14 15:37:00,54.0,40.4,30.02,WSW,242,0.0,0.0,60,0.00,,---,0.01,244.00,VWS V14.01,2013-02-14 20:37:00,
2013-02-14 15:42:00,54.1,41.4,30.02,WSW,242,3.0,3.0,62,0.00,,---,0.01,211.00,VWS V14.01,2013-02-14 20:42:00,
2013-02-14 15:47:00,54.0,40.9,30.02,WSW,242,0.0,0.0,61,0.00,,---,0.01,192.00,VWS V14.01,2013-02-14 20:47:00,
2013-02-14 15:52:00,54.0,40.9,30.02,WSW,242,0.0,0.0,61,0.00,,---,0.01,197.00,VWS V14.01,2013-02-14 20:52:00,
2013-02-14 15:57:00,53.9,41.2,30.02,WSW,240,2.0,2.0,62,0.00,,---,0.01,181.00,VWS V14.01,2013-02-14 20:57:00,
2013-02-14 16:02:00,53.9,41.6,30.02,WSW,240,0.0,1.0,63,0.00,,---,0.01,174.00,VWS V14.01,2013-02-14 21:02:00,
2013-02-14 16:07:00,53.9,41.2,30.02,WSW,244,3.0,3.0,62,0.00,,---,0.01,176.00,VWS V14.01,2013-02-14 21:07:00,
2013-02-14 16:12:00,53.7,41.0,30.02,WSW,244,4.0,4.0,62,0.00,,---,0.01,186.00,VWS V14.01,2013-02-14 21:12:00,
2013-02-14 16:17:00,53.6,40.9,30.02,WSW,245,4.0,4.0,62,0.00,,---,0.01,155.00,VWS V14.01,2013-02-14 21:17:00,
2013-02-14 16:22:00,53.6,40.9,30.02,WSW,246,0.0,2.0,62,0.00,,---,0.01,149.00,VWS V14.01,2013-02-14 21:22:00,
2013-02-14 16:27:00,53.6,40.9,30.02,WSW,246,0.0,3.0,62,0.00,,---,0.01,165.00,VWS V14.01,2013-02-14 21:27:00,
2013-02-14 16:32:00,53.6,41.3,30.02,WSW,246,5.0,5.0,63,0.00,,---,0.01,171.00,VWS V14.01,2013-02-14 21:32:00,
2013-02-14 16:37:00,53.7,41.4,30.02,WSW,246,3.0,4.0,63,0.00,,---,0.01,132.00,VWS V14.01,2013-02-14 21:37:00,
2013-02-14 16:42:00,53.7,41.4,30.02,WSW,246,0.0,2.0,63,0.00,,---,0.01,104.00,VWS V14.01,2013-02-14 21:42:00,
2013-02-14 16:47:00,53.6,41.3,30.02,WSW,246,2.0,3.0,63,0.00,,---,0.01,111.00,VWS V14.01,2013-02-14 21:47:00,
2013-02-14 16:52:00,53.6,41.3,30.02,WSW,246,0.0,1.0,63,0.00,,---,0.01,91.00,VWS V14.01,2013-02-14 21:52:00,
2013-02-14 16:58:00,53.4,41.1,30.02,WSW,246,2.0,2.0,63,0.00,,---,0.01,98.00,VWS V14.01,2013-02-14 21:58:00,
2013-02-14 17:03:00,53.3,41.5,30.01,WSW,246,1.0,2.0,64,0.00,,---,0.01,83.00,VWS V14.01,2013-02-14 22:03:00,
2013-02-14 17:08:00,53.2,41.8,30.01,WSW,240,0.0,0.0,65,0.00,,---,0.01,72.00,VWS V14.01,2013-02-14 22:08:00,
2013-02-14 17:13:00,53.1,41.7,30.00,WSW,240,0.0,0.0,65,0.00,,---,0.01,84.00,VWS V14.01,2013-02-14 22:13:00,
2013-02-14 17:18:00,53.1,42.1,30.00,WSW,246,0.0,0.0,66,0.00,,---,0.01,83.00,VWS V14.01,2013-02-14 22:18:00,
2013-02-14 17:23:00,53.1,42.1,30.00,WSW,246,0.0,0.0,66,0.00,,---,0.01,53.00,VWS V14.01,2013-02-14 22:23:00,
2013-02-14 17:28:00,53.0,42.0,30.00,WSW,246,0.0,1.0,66,0.00,,---,0.01,54.00,VWS V14.01,2013-02-14 22:28:00,
2013-02-14 17:33:00,53.0,42.7,30.01,WSW,246,0.0,0.0,68,0.00,,---,0.01,51.00,VWS V14.01,2013-02-14 22:33:00,
2013-02-14 17:38:00,52.9,43.0,30.02,WSW,246,0.0,0.0,69,0.00,,---,0.01,37.00,VWS V14.01,2013-02-14 22:38:00,
2013-02-14 17:43:00,52.7,43.2,30.02,WSW,246,0.0,0.0,70,0.00,,---,0.01,33.00,VWS V14.01,2013-02-14 22:43:00,
2013-02-14 17:48:00,52.6,43.5,30.02,WSW,246,0.0,0.0,71,0.00,,---,0.01,23.00,VWS V14.01,2013-02-14 22:48:00,
2013-02-14 17:54:00,52.4,44.0,30.03,WSW,246,0.0,0.0,73,0.00,,---,0.01,18.00,VWS V14.01,2013-02-14 22:54:00,
2013-02-14 17:59:00,52.2,44.5,30.03,WSW,246,0.0,0.0,75,0.00,,---,0.01,14.00,VWS V14.01,2013-02-14 22:59:00,
2013-02-14 18:04:00,51.8,44.5,30.03,WSW,246,0.0,0.0,76,0.00,,---,0.01,9.00,VWS V14.01,2013-02-14 23:04:00,
2013-02-14 18:09:00,51.4,44.1,30.03,WSW,246,0.0,0.0,76,0.00,,---,0.01,7.00,VWS V14.01,2013-02-14 23:09:00,
2013-02-14 18:14:00,51.0,44.0,30.03,WSW,246,0.0,0.0,77,0.00,,---,0.01,7.00,VWS V14.01,2013-02-14 23:14:00,
2013-02-14 18:19:00,50.7,43.8,30.03,WSW,246,0.0,0.0,77,0.00,,---,0.01,0.00,VWS V14.01,2013-02-14 23:19:00,
2013-02-14 18:24:00,50.3,43.4,30.04,WSW,246,0.0,0.0,77,0.00,,---,0.01,0.00,VWS V14.01,2013-02-14 23:24:00,
2013-02-14 18:29:00,50.0,43.1,30.04,WSW,246,0.0,0.0,77,0.00,,---,0.01,0.00,VWS V14.01,2013-02-14 23:29:00,
2013-02-14 18:34:00,49.8,43.2,30.04,WSW,246,0.0,0.0,78,0.00,,---,0.01,0.00,VWS V14.01,2013-02-14 23:34:00,
2013-02-14 18:39:00,49.6,43.0,30.04,WSW,246,0.0,0.0,78,0.00,,---,0.01,0.00,VWS V14.01,2013-02-14 23:39:00,
2013-02-14 18:44:00,49.4,42.8,30.04,WSW,246,0.0,0.0,78,0.00,,---,0.01,0.00,VWS V14.01,2013-02-14 23:44:00,
2013-02-14 18:49:00,49.2,43.0,30.04,WSW,246,0.0,0.0,79,0.00,,---,0.01,0.00,VWS V14.01,2013-02-14 23:49:00,
2013-02-14 18:54:00,48.9,43.0,30.04,WSW,246,0.0,0.0,80,0.00,,---,0.01,0.00,VWS V14.01,2013-02-14 23:54:00,
2013-02-14 18:59:00,48.7,42.8,30.05,WSW,246,0.0,0.0,80,0.00,,---,0.01,0.00,VWS V14.01,2013-02-14 23:59:00,
2013-02-14 19:04:00,48.6,42.7,30.05,WSW,246,0.0,0.0,80,0.00,,---,0.01,0.00,VWS V14.01,2013-02-15 00:04:00,
2013-02-14 19:10:00,48.4,42.8,30.06,WSW,246,0.0,0.0,81,0.00,,---,0.01,0.00,VWS V14.01,2013-02-15 00:10:00,
2013-02-14 19:15:00,48.2,42.7,30.05,WSW,246,0.0,0.0,81,0.00,,---,0.01,0.00,VWS V14.01,2013-02-15 00:15:00,
2013-02-14 19:20:00,48.0,42.8,30.05,WSW,246,0.0,0.0,82,0.00,,---,0.01,0.00,VWS V14.01,2013-02-15 00:20:00,
2013-02-14 19:25:00,47.8,42.9,30.06,WSW,246,0.0,0.0,83,0.00,,---,0.01,0.00,VWS V14.01,2013-02-15 00:25:00,
2013-02-14 19:30:00,47.6,43.0,30.06,WSW,246,0.0,0.0,84,0.00,,---,0.01,0.00,VWS V14.01,2013-02-15 00:30:00,
2013-02-14 19:35:00,47.2,42.6,30.06,WSW,246,0.0,0.0,84,0.00,,---,0.01,0.00,VWS V14.01,2013-02-15 00:35:00,
2013-02-14 19:40:00,47.0,42.4,30.06,WSW,246,0.0,0.0,84,0.00,,---,0.01,0.00,VWS V14.01,2013-02-15 00:40:00,
2013-02-14 19:45:00,46.8,42.5,30.05,WSW,246,0.0,0.0,85,0.00,,---,0.01,0.00,VWS V14.01,2013-02-15 00:45:00,
2013-02-14 19:50:00,46.5,42.2,30.05,WSW,246,0.0,0.0,85,0.00,,---,0.01,0.00,VWS V14.01,2013-02-15 00:50:00,
2013-02-14 19:55:00,46.3,42.3,30.06,WSW,246,0.0,0.0,86,0.00,,---,0.01,0.00,VWS V14.01,2013-02-15 00:55:00,
2013-02-14 20:00:00,46.1,42.2,30.06,WSW,246,0.0,0.0,86,0.00,,---,0.01,0.00,VWS V14.01,2013-02-15 01:00:00,
2013-02-14 20:05:00,45.9,42.0,30.06,WSW,246,0.0,1.0,86,0.00,,---,0.01,0.00,VWS V14.01,2013-02-15 01:05:00,
2013-02-14 20:10:00,45.6,42.0,30.07,WSW,246,0.0,0.0,87,0.00,,---,0.01,0.00,VWS V14.01,2013-02-15 01:10:00,
2013-02-14 20:16:00,45.3,41.7,30.07,WSW,246,0.0,0.0,87,0.00,,---,0.01,0.00,VWS V14.01,2013-02-15 01:16:00,
2013-02-14 20:21:00,45.2,41.6,30.07,WSW,246,0.0,0.0,87,0.00,,---,0.01,0.00,VWS V14.01,2013-02-15 01:21:00,
2013-02-14 20:26:00,45.0,41.4,30.07,WSW,246,0.0,0.0,87,0.00,,---,0.01,0.00,VWS V14.01,2013-02-15 01:26:00,
2013-02-14 20:31:00,44.9,41.3,30.07,WSW,246,0.0,0.0,87,0.00,,---,0.01,0.00,VWS V14.01,2013-02-15 01:31:00,
2013-02-14 20:36:00,44.7,41.4,30.07,WSW,246,0.0,0.0,88,0.00,,---,0.01,0.00,VWS V14.01,2013-02-15 01:36:00,
2013-02-14 20:41:00,44.4,41.1,30.07,WSW,246,0.0,0.0,88,0.00,,---,0.01,0.00,VWS V14.01,2013-02-15 01:41:00,
2013-02-14 20:46:00,44.2,41.2,30.07,WSW,246,0.0,0.0,89,0.00,,---,0.01,0.00,VWS V14.01,2013-02-15 01:46:00,
2013-02-14 20:51:00,44.1,41.1,30.07,WSW,246,0.0,0.0,89,0.00,,---,0.01,0.00,VWS V14.01,2013-02-15 01:51:00,
2013-02-14 20:56:00,43.9,40.9,30.06,WSW,246,0.0,0.0,89,0.00,,---,0.01,0.00,VWS V14.01,2013-02-15 01:56:00,
2013-02-14 21:01:00,43.6,40.6,30.07,WSW,246,0.0,0.0,89,0.00,,---,0.01,0.00,VWS V14.01,2013-02-15 02:01:00,
2013-02-14 21:06:00,43.2,40.2,30.08,WSW,246,0.0,1.0,89,0.00,,---,0.01,0.00,VWS V14.01,2013-02-15 02:06:00,
2013-02-14 21:11:00,43.0,40.0,30.07,WSW,246,0.0,0.0,89,0.00,,---,0.01,0.00,VWS V14.01,2013-02-15 02:11:00,
2013-02-14 21:16:00,42.7,40.0,30.07,WSW,246,0.0,0.0,90,0.00,,---,0.01,0.00,VWS V14.01,2013-02-15 02:16:00,
2013-02-14 21:21:00,42.5,39.8,30.07,WSW,246,0.0,0.0,90,0.00,,---,0.01,0.00,VWS V14.01,2013-02-15 02:21:00,
2013-02-14 21:26:00,42.4,39.7,30.07,WSW,246,0.0,0.0,90,0.00,,---,0.01,0.00,VWS V14.01,2013-02-15 02:26:00,
2013-02-14 21:31:00,42.3,39.6,30.06,WSW,246,0.0,0.0,90,0.00,,---,0.01,0.00,VWS V14.01,2013-02-15 02:31:00,
2013-02-14 21:36:00,42.0,39.3,30.06,WSW,246,0.0,0.0,90,0.00,,---,0.01,0.00,VWS V14.01,2013-02-15 02:36:00,
2013-02-14 21:41:00,41.8,39.1,30.07,WSW,246,0.0,0.0,90,0.00,,---,0.01,0.00,VWS V14.01,2013-02-15 02:41:00,
2013-02-14 21:47:00,41.6,38.9,30.07,WSW,246,0.0,0.0,90,0.00,,---,0.01,0.00,VWS V14.01,2013-02-15 02:47:00,
2013-02-14 21:52:00,41.5,38.8,30.07,WSW,246,0.0,0.0,90,0.00,,---,0.01,0.00,VWS V14.01,2013-02-15 02:52:00,
2013-02-14 21:57:00,41.3,38.6,30.07,WSW,246,0.0,0.0,90,0.00,,---,0.01,0.00,VWS V14.01,2013-02-15 02:57:00,
2013-02-14 22:02:00,41.2,38.8,30.07,WSW,246,0.0,0.0,91,0.00,,---,0.01,0.00,VWS V14.01,2013-02-15 03:02:00,
2013-02-14 22:07:00,41.0,38.3,30.08,WSW,246,0.0,0.0,90,0.00,,---,0.01,0.00,VWS V14.01,2013-02-15 03:07:00,
2013-02-14 22:12:00,40.9,38.5,30.08,WSW,246,0.0,0.0,91,0.00,,---,0.01,0.00,VWS V14.01,2013-02-15 03:12:00,
2013-02-14 22:17:00,40.8,38.4,30.07,WSW,246,0.0,0.0,91,0.00,,---,0.01,0.00,VWS V14.01,2013-02-15 03:17:00,
2013-02-14 22:22:00,40.7,38.3,30.08,WSW,246,0.0,0.0,91,0.00,,---,0.01,0.00,VWS V14.01,2013-02-15 03:22:00,
2013-02-14 22:27:00,40.6,38.2,30.09,WSW,246,0.0,0.0,91,0.00,,---,0.01,0.00,VWS V14.01,2013-02-15 03:27:00,
2013-02-14 22:33:00,40.5,38.1,30.09,WSW,246,0.0,0.0,91,0.00,,---,0.01,0.00,VWS V14.01,2013-02-15 03:33:00,
2013-02-14 22:38:00,40.4,38.0,30.08,WSW,246,0.0,0.0,91,0.00,,---,0.01,0.00,VWS V14.01,2013-02-15 03:38:00,
2013-02-14 22:43:00,40.3,37.9,30.09,WSW,246,0.0,0.0,91,0.00,,---,0.01,0.00,VWS V14.01,2013-02-15 03:43:00,
2013-02-14 22:48:00,40.2,38.1,30.08,WSW,246,0.0,0.0,92,0.00,,---,0.01,0.00,VWS V14.01,2013-02-15 03:48:00,
2013-02-14 22:53:00,40.1,38.0,30.08,WSW,246,0.0,0.0,92,0.00,,---,0.01,0.00,VWS V14.01,2013-02-15 03:53:00,
2013-02-14 22:58:00,39.8,37.7,30.08,WSW,246,0.0,0.0,92,0.00,,---,0.01,0.00,VWS V14.01,2013-02-15 03:58:00,
2013-02-14 23:03:00,39.7,37.6,30.08,WSW,246,0.0,0.0,92,0.00,,---,0.01,0.00,VWS V14.01,2013-02-15 04:03:00,
2013-02-14 23:08:00,39.5,37.4,30.09,WSW,246,0.0,0.0,92,0.00,,---,0.01,0.00,VWS V14.01,2013-02-15 04:08:00,
2013-02-14 23:13:00,39.4,37.3,30.08,WSW,246,0.0,0.0,92,0.00,,---,0.01,0.00,VWS V14.01,2013-02-15 04:13:00,
2013-02-14 23:18:00,39.1,37.0,30.08,WSW,246,0.0,0.0,92,0.00,,---,0.01,0.00,VWS V14.01,2013-02-15 04:18:00,
2013-02-14 23:24:00,38.9,36.8,30.08,WSW,246,0.0,1.0,92,0.00,,---,0.01,0.00,VWS V14.01,2013-02-15 04:24:00,
2013-02-14 23:29:00,38.8,36.7,30.08,WSW,246,0.0,0.0,92,0.00,,---,0.01,0.00,VWS V14.01,2013-02-15 04:29:00,
2013-02-14 23:34:00,38.6,36.5,30.08,WSW,246,0.0,0.0,92,0.00,,---,0.01,0.00,VWS V14.01,2013-02-15 04:34:00,
2013-02-14 23:39:00,38.6,36.5,30.08,WSW,246,0.0,0.0,92,0.00,,---,0.01,0.00,VWS V14.01,2013-02-15 04:39:00,
2013-02-14 23:44:00,38.4,36.3,30.08,WSW,246,0.0,0.0,92,0.00,,---,0.01,0.00,VWS V14.01,2013-02-15 04:44:00,
2013-02-14 23:49:00,38.3,36.2,30.08,WSW,246,0.0,0.0,92,0.00,,---,0.01,0.00,VWS V14.01,2013-02-15 04:49:00,
2013-02-14 23:54:00,38.2,36.4,30.07,WSW,246,0.0,0.0,93,0.00,,---,0.01,0.00,VWS V14.01,2013-02-15 04:54:00,
2013-02-14 23:59:00,38.0,36.2,30.08,WSW,246,0.0,0.0,93,0.00,,---,0.01,0.00,VWS V14.01,2013-02-15 04:59:00,